Location: Aulnoy
(48.8410°N, 3.0967°E)
Time: 00:03:44
(UTC+00:00)

Cosmos 1814 Rocket - Pass Details

Date: 09 February 2023
Orbit: 743 x 787 km, 74.1° (Epoch: 21 March)

Event Time Altitude Azimuth Distance (km) Brightness Sun altitude
Rises 17:53:57 0° 338° (NNW) 3,289 7.4 -9.7°
Reaches altitude 10° 17:56:22 10° 342° (NNW) 2,358 6.6 -10.0°
Maximum altitude 18:01:43 65° 64° (ENE) 868 4.0 -10.9°
Drops below altitude 10° 18:07:00 10° 146° (SE) 2,339 6.3 -11.8°
Sets 18:09:24 0° 149° (SSE) 3,260 7.0 -12.2°
